Location: Goettingen
(51.5300°N, 9.9433°E)
Time: 07:12:51
(UTC+02:00)

ISS - Pass Details

Date: 09 May 2021
Orbit: 417 x 422 km, 51.6° (Epoch: 18 May)

Event Time Altitude Azimuth Distance (km) Brightness Sun altitude
Exits shadow 03:36:23 18° 267° (W) 1,109 -2.0 -14.7°
Maximum altitude 03:38:46 87° 351° (N) 427 -3.8 -14.4°
Drops below altitude 10° 03:42:10 10° 86° (E) 1,507 -0.4 -14.1°
Sets 03:44:16 0° 87° (E) 2,372 0.7 -13.9°
